Weather in Vyatskoye

Russia / Yaroslavl Oblast     57°51′50″N   40°16′03″E
temp.,
°C
wind,
m/s
gust,
m/s
humid.,
%
clouds,
%
prec.,
mm/h
press.,
hPa
HPBL,
m
19 april, mon
mon1900:00+5ene51180100 0.0 1028595
03:00+4ene51082100 0.0 1028512
06:00+3ene61173100 0.0 1028495
09:00+4e7105756 0.0 1029798
12:00+8e79445 0.0 10291404
15:00+9e78408 0.0 10281858
18:00+8e68435 0.0 10281573
21:00+4e512550 0.0 1029432
20 april, tue
tue2000:00+2e5126387 0.0 1029419
03:000e512695 0.0 1029353
06:000e5126718 0.0 1028410
09:00+5ese7115065 0.0 1028759
12:00+8ese81146100 0.0 10261328
15:00+10ese81145100 0.0 10241574
18:00+9ese71251100 0.0 10221343
21:00+7ese71447100 0.0 1021818
21 april, wed
wed2100:00+5e71551100 0.0 1018623
03:00+4e81652100 0.0 1015763
06:000e91996100 1.6 1011851
09:00+1e91793100 4.5 1008904
12:00+2ese101997100 1.6 1004944
15:00+5se91590100 2.2 10031144
18:00+3s91595100 0.1 10051025
21:00+3ssw81392100 0.2 1008905
22 april, thu
thu2200:00+3ssw81388100 0.1 1010915
03:00+3ssw5119097 0.1 1012499
06:00+4s51090100 0.0 1013465
09:00+7s711755 0.0 1013714
12:00+10ssw81060100 0.1 10141450
15:00+12ssw795298 0.2 10141859
18:00+10sw487260 0.4 1015820
21:00+7ssw378974 0.4 1017133
23 april, fri
fri2300:00+8s498598 0.0 1017272
03:00+5s37911 0.0 1017126
06:00+5sse38925 0.0 1017179
09:00+11s69735 0.0 1017566
12:00+16s68555 0.0 10171354
15:00+17ssw795267 0.6 10161619
18:00+15s5106187 1.8 1015477
21:00+11sse5137815 1.8 1015280